Location: Bourg-d�Oueil
(42.8588°N, 0.4991°E)
Time: 05:10:44
(UTC+00:00)

Cosmos 1459 Rocket - Visible Passes

Search period start: 26 October 2021 00:00
Search period end: 05 November 2021 00:00
Orbit: 936 x 1000 km, 83.0° (Epoch: 25 October)

Date Brightness Start Highest point End Pass type
(mag) Time Alt. Az. Time Alt. Az. Time Alt. Az.
26 Oct 5.7 05:33:59 10° N 05:39:30 35° ENE 05:44:59 10° SE visible
26 Oct 3.8 19:02:50 10° S 19:09:00 73° E 19:15:07 10° NNE visible
26 Oct 6.3 20:50:50 10° WSW 20:54:52 18° WNW 20:58:53 10° NNW visible
27 Oct 4.7 05:56:54 10° N 06:02:53 60° E 06:08:53 10° SSE visible
27 Oct 5.1 17:43:36 10° ESE 17:47:39 19° E 17:51:41 10° NE visible
27 Oct 4.2 19:26:05 10° SSW 19:32:14 67° W 19:38:19 10° N visible
28 Oct 6.7 04:36:35 10° NNE 04:40:09 16° ENE 04:43:43 10° ESE visible
28 Oct 4.6 18:05:10 10° SSE 18:10:31 32° E 18:15:50 10° NNE visible
28 Oct 5.2 19:49:53 10° SW 19:55:36 39° WNW 20:01:16 10° N visible
29 Oct 6.1 04:58:44 10° NNE 05:03:48 27° ENE 05:08:52 10° SE visible
29 Oct 4.0 18:27:32 10° SSE 18:33:32 56° E 18:39:28 10° NNE visible
29 Oct 6.0 20:14:22 10° WSW 20:19:07 23° WNW 20:23:52 10° NNW visible
30 Oct 5.1 05:21:28 10° N 05:27:17 46° ENE 05:33:05 10° SSE visible
30 Oct 3.9 18:50:31 10° S 18:56:40 86° W 19:02:48 10° N visible
30 Oct 6.7 20:40:00 10° W 20:42:49 13° WNW 20:45:39 10° NW visible
31 Oct 6.8 04:02:09 10° NE 04:04:21 12° ENE 04:06:32 10° E visible
31 Oct 4.1 05:44:30 10° N 05:50:36 79° E 05:56:42 10° S visible
31 Oct 4.9 17:30:21 10° SE 17:35:08 24° E 17:39:55 10° NNE visible
31 Oct 4.7 19:14:02 10° SSW 19:19:58 50° WNW 19:25:53 10° N visible
01 Nov 6.4 04:23:36 10° NNE 04:28:05 21° ENE 04:32:33 10° ESE visible
01 Nov 4.3 17:52:22 10° SSE 17:58:05 42° E 18:03:45 10° NNE visible
01 Nov 5.7 19:38:08 10° SW 19:43:25 30° WNW 19:48:40 10° NNW visible
02 Nov 5.5 04:46:07 10° N 04:51:38 35° ENE 04:57:10 10° SE visible
02 Nov 3.8 18:15:03 10° S 18:21:10 73° E 18:27:13 10° NNE visible
02 Nov 6.4 20:03:05 10° WSW 20:07:02 18° WNW 20:10:58 10° NNW visible
03 Nov 4.5 05:09:01 10° N 05:15:01 61° E 05:21:04 10° SSE visible
03 Nov 4.3 18:38:18 10° SSW 18:44:22 66° W 18:50:26 10° N visible
04 Nov 6.6 03:48:40 10° NNE 03:52:18 16° ENE 03:55:57 10° ESE visible
04 Nov 3.9 05:32:11 10° N 05:38:16 80° W 05:44:23 10° S visible
04 Nov 4.6 17:17:21 10° SSE 17:22:40 32° E 17:27:57 10° NNE visible
04 Nov 5.3 19:02:06 10° SW 19:07:44 38° WNW 19:13:22 10° N visible
